Hourly Data Report for October 26, 2014

All times are specified in Local Standard Time (LST). Add 1 hour to adjust for Daylight Saving Time where and when it is observed.

KAMLOOPS A
BRITISH COLUMBIA

50°42'09.000" N
120°26'55.000" W
345.30 m
1163781
71887
YKA

Download Data

Hourly Data (October 2014)
Hourly Data Report for October 26, 2014
Temp Definition
°C
Dew Point Temp Definition
°C
Rel Hum Definition
%
Wind Dir Definition
10's deg

Wind Spd Definition
km/h
Visibility Definition
km
Stn Press Definition
kPa
Hmdx Definition


Wind Chill Definition


Weather Definition


TIME
00:00 Legend Double Dagger 7.7 6.0 89 13 11 40.2 95.47     LegendNANA
01:00 Legend Double Dagger 7.4 6.0 91 30 7 40.2 95.60     Cloudy
02:00 Legend Double Dagger 7.3 6.1 92 2 9 64.4 95.71     LegendNANA
03:00 Legend Double Dagger 7.1 6.1 93 33 3 64.4 95.88     LegendNANA
04:00 Legend Double Dagger 8.4 3.3 70 33 21 64.4 96.09     Rain
05:00 Legend Double Dagger 7.4 2.7 72 28 16 24.1 96.37     Rain
06:00 Legend Double Dagger 6.6 3.6 81 23 13 24.1 96.55     Rain
07:00 Legend Double Dagger 7.1 2.4 72 22 15 40.2 96.69     Rain
08:00 Legend Double Dagger 6.9 3.0 76 27 4 64.4 96.83     LegendNANA
09:00 Legend Double Dagger 8.1 1.7 64 28 21 48.3 96.94     LegendNANA
10:00 Legend Double Dagger 8.8 2.2 63 27 15 64.4 97.04     Mostly Cloudy
11:00 Legend Double Dagger 9.1 1.5 59 27 17 64.4 97.15     LegendNANA
12:00 Legend Double Dagger 9.4 1.3 57 28 13 72.4 97.22     LegendNANA
13:00 Legend Double Dagger 9.6 1.0 55 27 14 64.4 97.27     Mostly Cloudy
14:00 Legend Double Dagger 9.5 1.9 59 27 10 64.4 97.32     LegendNANA
15:00 Legend Double Dagger 9.6 1.5 57 27 15 64.4 97.35     LegendNANA
16:00 Legend Double Dagger 8.7 1.2 59 28 13 64.4 97.40     Mostly Cloudy
17:00 Legend Double Dagger 7.6 0.8 62 28 9 64.4 97.48     LegendNANA
18:00 Legend Double Dagger 7.1 1.4 67 25 11 64.4 97.56     LegendNANA
19:00 Legend Double Dagger 5.5 0.7 71 27 9 64.4 97.60     Mainly Clear
20:00 Legend Double Dagger 6.0 0.8 69 24 14 64.4 97.64     LegendNANA
21:00 Legend Double Dagger 5.3 1.1 74 25 13 64.4 97.70     LegendNANA
22:00 Legend Double Dagger 4.4 0.2 74 25 15 64.4 97.78     Mainly Clear
23:00 Legend Double Dagger 3.5 0.4 80 26 13 64.4 97.83     LegendNANA

Notes on Data Quality.

Legend

  • E = Estimated
  • M = Missing
  • NA = Not Available
  • ‡ = Partner data that is not subject to review by the National Climate Archives
Date modified: